Orbital elements:
2017 AF5                                                 Earth MOID = 0.1562 AU
Epoch 2019 Apr. 27.0 TT = JDT 2458600.5                 MPC
M 224.29772              (2000.0)            P               Q
n   0.25249646     Peri.   11.18001     +0.89482708     +0.39224666
a   2.4791293      Node   323.30159     -0.43213904     +0.64134425
e   0.9496844      Incl.   20.89473     -0.11198369     +0.65940891
P   3.90           H   17.7           G   0.15           U   4
Residuals in seconds of arc
160118 F51  0.0   0.1+    170107 I52  0.1-  0.0     170128 H45  0.2+  0.3-
160118 F51  0.5-  0.0     170107 926  0.1-  0.2+    170128 H45  0.4+  0.3-
160118 F51  0.1+  0.3+    170107 926  0.3-  0.1-    170128 H45  0.2-  0.3-
160119 F51  0.2+  0.2+    170107 926  0.4-  0.2+    170128 H45  0.6+  0.2-
160119 F51  0.2+  0.4-    170108 T05  0.3+  0.1+    170128 T05  0.9+  0.1-
160119 F51  0.0   0.0     170108 T05  0.2-  0.3-    170128 T05  0.2-  0.1-
160121 F51  0.1-  0.2-    170108 T05  0.5-  0.6+    170128 T05  0.4-  0.4-
160210 F51  0.1+  0.1+    170108 T05  0.0   0.1+    170128 T05  0.3+  1.1-
160210 F51  0.0   0.1-    170116 T05  0.2-  0.5+    170128 T05  0.2-  0.1-
160210 F51  0.2+  0.1-    170116 T05  0.7-  0.0     170128 246  0.3-  0.2+
160210 F51  0.2-  0.1-    170116 T05  0.5+  0.0     170128 246  0.3-  0.0
160227 F51  0.0   0.1+    170117 G40  0.1+  0.3-    170128 246  0.3-  0.2-
160306 F51  0.2+  0.3-    170117 G40  0.3+  0.4-    170128 246  0.1-  0.1-
160306 F51  0.3+  0.0     170117 G40  0.3+  0.1+    170128 246  0.0   0.5+
160306 F51  0.3-  0.1-    170117 Z80  0.8-  0.2-    170128 246  0.3-  0.1-
160306 F51  0.0   0.0     170117 Z80  0.1-  0.8-    170128 246  0.3-  0.1+
160306 F51  0.4+  0.2+    170117 Z80  0.2+  0.1-    170128 246  0.1-  0.0
160313 F51  0.1-  0.0     170118 G40  0.0   0.1+    170128 246  0.1-  0.6+
160313 F51  0.2-  0.0     170118 G40  0.2-  0.1+    170128 046 (0.6+ 27.8+)
160313 F51  0.0   0.1-    170118 G40  0.0   0.1+    170129 046  1.1-  0.3-
160313 F51  0.0   0.1-    170119 D29  0.1-  0.3-    170129 046  1.2-  1.7-
160330 F51  0.0   0.1-    170119 D29  0.0   0.0     170129 046  0.7-  0.4-
160330 F51  0.2-  0.1+    170119 D29  0.3+  0.5-    170129 046  0.8+  0.6-
160425 F51  0.2+  0.8+    170119 K74  0.1+  0.1+    170129 046  0.0   0.4+
160425 F51  0.1-  0.2-    170119 K74  0.2+  0.4+    170129 703  0.4+  0.0
160425 F51  0.1-  0.1-    170119 K74  0.0   0.4+    170129 703  0.4+  0.2-
170104 T05  0.3+  0.0     170119 K74  0.3+  0.3+    170129 703  0.1+  0.1-
170104 T05  0.5+  0.0     170119 B67  0.6-  0.1-    170129 703  0.0   0.2+
170104 T05  0.2+  0.4-    170119 B67  0.5-  0.4+    170129 F51  0.0   0.1-
170104 T05  0.1+  0.4+    170119 B67  0.5-  0.2+    170129 F51  0.1-  0.1-
170105 K63  0.8-  0.3-    170120 K74  0.1-  0.0     170129 F51  0.0   0.1-
170105 K63  0.4+  0.8-    170120 K74  0.1-  0.1+    170129 F51  0.0   0.1-
170105 K63  0.8+  1.3-    170120 Z80  0.7-  0.2+    170129 K14  0.1-  0.3+
170105 J95  0.0   0.1+    170120 Z80  0.5-  0.1+    170129 K14  0.2-  0.1+
170105 J95  0.2+  0.2+    170120 Z80  0.2+  1.0+    170129 246  0.4+  0.1+
170105 J95  0.0   0.1-    170121 130  0.1+  0.1-    170129 246  0.2+  0.1+
170105 926  0.0   0.2+    170121 130  0.0   0.1-    170129 246  0.2+  0.1+
170105 926  0.0   0.1+    170121 130  0.2-  0.0     170129 246  0.4+  0.5+
170105 926  0.1-  0.1+    170121 130  0.0   0.2+    170129 246  0.0   0.4+
170105 104  0.2+  0.4+    170121 F51  0.2-  0.2-    170129 246  0.5+  0.1-
170105 104  0.0   0.3+    170121 F51  0.1-  0.1-    170129 246  0.2+  0.1+
170105 104  0.6+  0.2+    170121 F51  0.1-  0.1-    170129 246  0.0   0.1-
170106 K63  0.3+  2.6-    170121 F51  0.1-  0.1-    170129 046  1.0-  0.4+
170106 K63  0.1-  0.8-    170121 F51  0.0   0.2-    170129 046  0.0   0.1+
170106 K63  0.0   0.3-    170121 F51  0.1-  0.2-    170129 046  0.7+  0.6-
170106 595  0.1+  0.2+    170121 F51  0.0   0.1-    170129 046  0.1+  0.6-
170106 595  0.1+  0.5-    170121 F51  0.1-  0.2-    170129 046  0.7+  0.1+
170106 595  0.2+  0.3-    170121 D29  0.1-  0.0     170129 046  0.9+  0.3+
170106 I89  0.5-  0.3+    170121 D29  0.1-  0.0     170129 046  1.0+  0.4-
170106 I89  0.0   0.5-    170121 D29  0.2-  0.0     170130 H45  0.1-  0.1-
170106 I89  0.2-  0.1-    170121 246  0.6+  0.8-    170130 H45  0.1-  0.0
170106 I89  0.4-  0.1+    170121 246  0.6+  0.3+    170130 H45  0.0   0.2-
170106 H36  0.3-  0.1-    170121 246  0.6+  0.0     170130 H45  0.3+  0.4-
170106 H36  0.4-  0.2+    170121 246  0.0   0.0     170130 H45  0.1+  0.2-
170106 H36  0.3-  0.5-    170121 246  0.3+  0.1-    170130 H45  0.2+  0.1-
170106 H36  0.5-  0.1-    170121 246  0.1-  0.6-    170131 H21  0.1-  0.1-
170106 926  0.0   0.3+    170121 246  0.2-  0.1-    170131 H21  0.0   0.1-
170106 926  0.0   0.2+    170121 246  0.1-  0.7-    170131 H21  0.2-  0.4-
170106 926  0.0   0.1+    170122 H21  0.2+  0.5+    170131 H21  0.2-  0.4-
170106 300  0.5+  0.4+    170122 H21  0.0   0.3+    170201 703  0.3-  0.4-
170106 300  0.3+  0.2+    170122 H21  0.1+  0.1+    170201 703  0.0   0.0
170106 300  0.2+  0.3+    170122 H21  0.0   0.1+    170201 703  0.2+  0.1-
170106 587  0.4+  0.3-    170122 F51  0.2-  0.2-    170201 703  0.5-  0.4-
170106 587  0.4-  0.2-    170122 L04  0.3-  0.3+    170204 G96  0.0   0.7-
170106 587  0.2+  0.1-    170122 L04  0.0   0.1-    170204 G96  0.2+  0.3-
170106 107  0.1-  0.1-    170122 L04  0.1-  0.2+    170204 G96  0.2-  0.5+
170106 107  0.0   0.3+    170124 H45  0.1-  0.0     170204 G96  0.1-  0.1-
170106 107  0.9+  0.1-    170124 H45  0.2-  0.2-    170204 H21  0.1+  0.2-
170107 I93  0.4+  0.1-    170124 H45  0.1+  0.1+    170204 H21  0.1+  0.2-
170107 C44  0.4-  0.1+    170124 H45  0.1+  0.1+    170204 H21  0.1-  0.3-
170107 I93  0.0   0.1+    170124 H45  0.2+  0.1-    170214 F51  0.0   0.0
170107 C44  0.2-  0.2-    170124 H45  0.1+  0.1-    170214 F51  0.0   0.1+
170107 C44  0.2-  0.1-    170124 T05  0.2-  0.0     170214 246  0.3-  0.1+
170107 C44  0.0   0.1+    170124 T05  0.0   0.5-    170214 246  0.6+  1.8+
170107 I93  0.2+  0.1-    170124 T05  0.4-  0.0     170214 246  0.5-  0.3-
170107 160  0.1-  0.1+    170124 T05  0.2-  0.3+    170215 754  0.1-  0.2-
170107 160  0.0   0.2+    170124 T05  0.5+  0.2+    170215 754  0.6-  0.2-
170107 160  0.3-  0.3+    170124 Z80  0.9+  0.1+    170215 754  0.3+  0.3-
170107 160  0.1-  0.1-    170124 Z80  0.1-  0.8-    170215 246  0.3+  0.0
170107 204  0.1-  0.1+    170125 H21  0.0   0.1+    170215 246  1.3+  1.7-
170107 204  0.1-  0.0     170125 H21  0.1+  0.2+    170215 246  0.7-  0.1+
170107 204  0.3-  0.0     170125 H21  0.0   0.2+    170215 246  0.1+  0.3+
170107 204  0.2-  0.0     170126 H45  0.4+  0.3-    170215 246  0.2+  0.4-
170107 204  0.1-  0.1+    170126 H45  0.4+  0.2-    170216 H21  0.2-  0.3+
170107 I89  0.4-  0.5+    170126 H45  0.2+  0.3-    170216 H21  0.2-  0.3+
170107 I89  0.0   0.3+    170126 H45  0.7+  0.3-    170216 H21  0.1-  0.1+
170107 I89  0.1-  0.0     170126 H45  0.5+  0.4-    170223 H21  0.1+  0.0
170107 I89  0.4+  0.1-    170126 H45  0.2+  0.4-    170223 H21  0.2+  0.2-
170107 I89  0.2-  0.4+    170127 160  0.7+  2.6-    170223 H21  0.1-  0.0
170107 I89  0.1-  0.3+    170127 160  0.1+  2.1-    170224 G96  0.1-  0.1-
170107 703  0.1-  0.0     170127 160  0.4-  0.4-    170224 G96  0.0   0.4-
170107 703  0.0   0.0     170127 G96  0.0   0.1-    170224 G96  0.1+  0.0
170107 703  0.0   0.1+    170127 G96  0.1+  0.1-    170224 G96  0.8-  0.5+
170107 703  0.1+  0.1-    170127 G96  0.5-  0.4+    170409 F51  0.5-  0.1-
170107 I52  0.1-  0.1-    170127 G96  0.0   0.2-    170409 F51  0.2+  0.4-
170107 I52  0.1-  0.2-    170128 H45  0.2+  0.3-
170107 I52  0.0   0.0     170128 H45  0.4+  0.3-

Ephemeris:
2017 AF5                 a,e,i = 2.48, 0.95, 21                  q = 0.1247
Date    TT    R. A. (2000) Decl.     Delta      r     Elong.  Phase     V
2018 11 27    11 01 30.6 +01 50 42   4.9266  4.8299    78.6    11.6    25.3
...
2018 12 12    11 02 50.0 +01 20 36   4.6662  4.8241    93.3    11.8    25.2
...
2018 12 20    11 02 18.2 +01 11 18   4.5268  4.8200   101.5    11.5    25.1
...
2018 12 26    11 01 17.7 +01 07 49   4.4242  4.8163   107.8    11.2    25.0
2018 12 27    11 01 04.4 +01 07 33   4.4074  4.8157   108.8    11.1    25.0
2018 12 28    11 00 50.3 +01 07 22   4.3906  4.8150   109.9    11.1    25.0
...
2019 01 03    10 59 05.6 +01 08 13   4.2923  4.8108   116.4    10.5    24.9
...
2019 01 11    10 55 53.3 +01 14 43   4.1690  4.8045   125.3     9.6    24.8
...
2019 01 26    10 47 15.9 +01 43 48   3.9714  4.7905   142.5     7.2    24.6

A. U. Tomatic                (C) Copyright 2018 MPC           M.P.E.C. 2018-Y82



More information about the Iaude mailing list